Tiempo cada hora Gola

Hoy, 4 Diciembre, Viernes

Tiempo Temperatura Precipitaciones Viento Presión Humedad
00:00 -1°C° 0 mm 4 mps 737 mmHg 71%
01:00 -1°C° 0 mm 4 mps 737 mmHg 73%
02:00 -1°C° 0 mm 4 mps 736 mmHg 75%
03:00 -1°C° 0 mm 5 mps 735 mmHg 77%
04:00 -1°C° 0 mm 5 mps 735 mmHg 79%
05:00 0°C° 0 mm 5 mps 735 mmHg 80%
06:00 0°C° 0 mm 5 mps 735 mmHg 81%
07:00 -1°C° 0 mm 7 mps 735 mmHg 76%
08:00 +2°C° 0 mm 7 mps 735 mmHg 73%
09:00 +3°C° 0 mm 7 mps 734 mmHg 70%
10:00 +4°C° 0 mm 8 mps 734 mmHg 67%
11:00 +4°C° 0 mm 7 mps 734 mmHg 67%
12:00 +5°C° 0 mm 7 mps 734 mmHg 67%
13:00 +5°C° 0 mm 6 mps 734 mmHg 68%
14:00 +4°C° 0 mm 6 mps 734 mmHg 72%
15:00 +3°C° 0 mm 6 mps 734 mmHg 75%
16:00 +3°C° 0 mm 5 mps 734 mmHg 79%
17:00 +2°C° 0 mm 5 mps 734 mmHg 80%
18:00 +2°C° 0 mm 6 mps 734 mmHg 81%
19:00 +2°C° 0 mm 6 mps 735 mmHg 82%
20:00 +2°C° 0 mm 6 mps 735 mmHg 81%
21:00 +2°C° 0 mm 6 mps 735 mmHg 81%
22:00 +2°C° 0 mm 7 mps 735 mmHg 80%
23:00 +3°C° 0 mm 7 mps 735 mmHg 79%

Mañana, 5 Diciembre, Sábado

Tiempo Temperatura Precipitaciones Viento Presión Humedad
00:00 +3°C° 0 mm 7 mps 735 mmHg 78%
01:00 +4°C° 0 mm 7 mps 735 mmHg 77%
02:00 +4°C° 0 mm 7 mps 735 mmHg 77%
03:00 +4°C° 0 mm 7 mps 735 mmHg 77%
04:00 +4°C° 0 mm 7 mps 735 mmHg 77%
05:00 +4°C° 0 mm 8 mps 735 mmHg 76%
06:00 +4°C° 0 mm 8 mps 736 mmHg 76%
07:00 +5°C° 0 mm 8 mps 736 mmHg 75%
08:00 +5°C° 0 mm 8 mps 736 mmHg 73%
09:00 +6°C° 0 mm 8 mps 737 mmHg 71%
10:00 +7°C° 0 mm 8 mps 737 mmHg 70%
11:00 +7°C° 0 mm 8 mps 738 mmHg 68%
12:00 +9°C° 0 mm 8 mps 738 mmHg 66%
13:00 +10°C° 0 mm 8 mps 738 mmHg 64%
14:00 +9°C° 0 mm 7 mps 739 mmHg 67%
15:00 +8°C° 0 mm 6 mps 739 mmHg 70%
16:00 +7°C° 0 mm 5 mps 739 mmHg 73%
17:00 +7°C° 0 mm 6 mps 739 mmHg 74%
18:00 +7°C° 0 mm 6 mps 740 mmHg 74%
19:00 +7°C° 0 mm 6 mps 740 mmHg 75%
20:00 +7°C° 0 mm 6 mps 740 mmHg 74%
21:00 +7°C° 0 mm 6 mps 740 mmHg 73%
22:00 +7°C° 0 mm 6 mps 740 mmHg 72%
23:00 +7°C° 0 mm 6 mps 741 mmHg 72%

Pasado mañana, 6 Diciembre, Domingo

Tiempo Temperatura Precipitaciones Viento Presión Humedad
00:00 +7°C° 0 mm 6 mps 741 mmHg 72%
01:00 +7°C° 0 mm 5 mps 741 mmHg 73%
02:00 +6°C° 0 mm 5 mps 741 mmHg 73%
03:00 +5°C° 0 mm 6 mps 741 mmHg 74%
04:00 +5°C° 0 mm 6 mps 741 mmHg 74%
05:00 +5°C° 0 mm 6 mps 741 mmHg 74%
06:00 +5°C° 0 mm 6 mps 741 mmHg 74%
07:00 +5°C° 0 mm 6 mps 741 mmHg 74%
08:00 +7°C° 0 mm 6 mps 741 mmHg 71%
09:00 +8°C° 0 mm 7 mps 741 mmHg 67%
10:00 +9°C° 0 mm 7 mps 741 mmHg 64%
11:00 +9°C° 0 mm 7 mps 741 mmHg 63%
12:00 +10°C° 0 mm 6 mps 741 mmHg 62%
13:00 +11°C° 0 mm 6 mps 741 mmHg 61%
14:00 +10°C° 0 mm 6 mps 741 mmHg 64%
15:00 +9°C° 0 mm 6 mps 741 mmHg 68%
16:00 +8°C° 0 mm 7 mps 741 mmHg 71%
17:00 +6°C° 0 mm 7 mps 741 mmHg 74%
18:00 +6°C° 0 mm 7 mps 741 mmHg 77%
19:00 +5°C° 0 mm 7 mps 741 mmHg 79%
20:00 +5°C° 0 mm 7 mps 741 mmHg 80%
21:00 +4°C° 0 mm 7 mps 740 mmHg 80%
22:00 +4°C° 0 mm 7 mps 740 mmHg 81%
23:00 +4°C° 0 mm 7 mps 740 mmHg 81%

7 Diciembre, Lunes

Tiempo Temperatura Precipitaciones Viento Presión Humedad
00:00 +4°C° 0 mm 7 mps 740 mmHg 81%
01:00 +3°C° 0 mm 7 mps 740 mmHg 81%
02:00 +3°C° 0 mm 7 mps 739 mmHg 81%
03:00 +3°C° 0 mm 7 mps 739 mmHg 81%
04:00 +2°C° 0 mm 7 mps 739 mmHg 82%
05:00 +2°C° 0 mm 7 mps 739 mmHg 82%
06:00 +2°C° 0 mm 7 mps 739 mmHg 82%
07:00 +2°C° 0 mm 7 mps 739 mmHg 82%
08:00 +2°C° 0 mm 7 mps 739 mmHg 79%
09:00 +3°C° 0 mm 7 mps 739 mmHg 76%
10:00 +3°C° 0 mm 7 mps 739 mmHg 74%
11:00 +4°C° 0 mm 6 mps 739 mmHg 71%
12:00 +5°C° 0 mm 6 mps 739 mmHg 69%
13:00 +5°C° 0 mm 6 mps 739 mmHg 67%
14:00 +5°C° 0 mm 6 mps 739 mmHg 69%
15:00 +5°C° 0 mm 6 mps 739 mmHg 71%
16:00 +4°C° 0 mm 6 mps 739 mmHg 73%
17:00 +4°C° 0 mm 6 mps 739 mmHg 75%
18:00 +5°C° 0 mm 5 mps 740 mmHg 76%
19:00 +5°C° 0 mm 5 mps 740 mmHg 77%
20:00 +3°C° 0 mm 5 mps 740 mmHg 79%
21:00 +3°C° 0 mm 5 mps 740 mmHg 82%
22:00 +3°C° 0 mm 4 mps 740 mmHg 84%
23:00 +3°C° 0 mm 4 mps 740 mmHg 84%

8 Diciembre, Martes

Tiempo Temperatura Precipitaciones Viento Presión Humedad
00:00 +3°C° 0 mm 4 mps 740 mmHg 84%
01:00 +3°C° 0 mm 4 mps 740 mmHg 85%
02:00 +3°C° 0.1 mm 4 mps 740 mmHg 86%
03:00 +3°C° 0.1 mm 4 mps 740 mmHg 86%
04:00 +3°C° 0.1 mm 4 mps 740 mmHg 87%
05:00 +3°C° 0.1 mm 4 mps 740 mmHg 88%
06:00 +3°C° 0.1 mm 4 mps 740 mmHg 88%
07:00 +3°C° 0.1 mm 3 mps 740 mmHg 89%
08:00 +3°C° 0.1 mm 3 mps 740 mmHg 88%
09:00 +3°C° 0.1 mm 4 mps 741 mmHg 87%
10:00 +3°C° 0.1 mm 4 mps 741 mmHg 86%
11:00 +4°C° 0.1 mm 3 mps 741 mmHg 85%
12:00 +4°C° 0.1 mm 3 mps 741 mmHg 85%
13:00 +4°C° 0.1 mm 3 mps 741 mmHg 84%
14:00 +4°C° 0.1 mm 3 mps 741 mmHg 86%
15:00 +4°C° 0.1 mm 3 mps 741 mmHg 87%
16:00 +4°C° 0.1 mm 3 mps 741 mmHg 89%
17:00 +3°C° 0 mm 3 mps 741 mmHg 90%
18:00 +3°C° 0 mm 4 mps 741 mmHg 90%
19:00 +3°C° 0 mm 4 mps 741 mmHg 90%
20:00 +1°C° 0 mm 4 mps 741 mmHg 91%
21:00 +1°C° 0 mm 4 mps 741 mmHg 92%
22:00 0°C° 0 mm 4 mps 741 mmHg 92%
23:00 0°C° 0 mm 4 mps 741 mmHg 92%

9 Diciembre, Miércoles

Tiempo Temperatura Precipitaciones Viento Presión Humedad
00:00 +1°C° 0 mm 3 mps 741 mmHg 91%
01:00 +1°C° 0 mm 3 mps 741 mmHg 90%
02:00 +1°C° 0 mm 3 mps 741 mmHg 90%
03:00 0°C° 0 mm 4 mps 741 mmHg 90%
04:00 0°C° 0 mm 4 mps 741 mmHg 90%
05:00 0°C° 0 mm 4 mps 741 mmHg 91%
06:00 0°C° 0 mm 4 mps 741 mmHg 91%
07:00 0°C° 0 mm 4 mps 741 mmHg 92%
08:00 0°C° 0 mm 4 mps 741 mmHg 89%
09:00 +1°C° 0 mm 5 mps 741 mmHg 86%
10:00 +1°C° 0 mm 5 mps 741 mmHg 84%
11:00 +2°C° 0 mm 5 mps 741 mmHg 81%
12:00 +3°C° 0 mm 4 mps 741 mmHg 79%
13:00 +4°C° 0 mm 4 mps 741 mmHg 77%
14:00 +3°C° 0 mm 4 mps 741 mmHg 78%
15:00 +3°C° 0 mm 4 mps 741 mmHg 79%
16:00 +3°C° 0 mm 4 mps 741 mmHg 80%
17:00 +3°C° 0 mm 4 mps 740 mmHg 81%
18:00 +1°C° 0 mm 4 mps 740 mmHg 82%
19:00 +1°C° 0 mm 4 mps 740 mmHg 83%
20:00 0°C° 0 mm 4 mps 740 mmHg 84%
21:00 +1°C° 0 mm 3 mps 740 mmHg 85%
22:00 +1°C° 0 mm 3 mps 740 mmHg 85%
23:00 +1°C° 0 mm 3 mps 740 mmHg 87%
Mostrar más

Necesitamos Su Consentimiento

Meteoprog y nuestros Proveedores de Servicios pueden almacenar y acceder a sus datos personales como cookies, identificadores de dispositivo u otras tecnologías similares de su dispositivo y procesar dichos datos para personalizar contenido y anuncios, además de ofrecer funciones de redes sociales y analizar el tráfico.

  • Almacenar y/o acceder a información en su dispositivo

    Se puede almacenar o acceder a cookies, identificadores de dispositivo u otra información de su dispositivo para los fines anteriormente indicados.

  • Anuncios y contenido personalizados, medición de anuncios y contenido, percepciones del público, y desarrollo de productos

    Los anuncios y el contenido pueden personalizarse en base a su perfil. Se pueden añadir más datos para personalizar mejor los anuncios y contenidos. Se puede medir el rendimiento de los anuncios y contenidos. Se puede obtener la percepción sobre el público que ha visto los anuncios y contenidos. Dichos datos pueden usarse para desarrollar o mejorar la experiencia del usuario, sistemas y software.

Al hacer clic en ‘Estoy De Acuerdo’ usted permitirá el uso de las cookies, identificadores de dispositivo, balizas web u otras tecnologías similares indicadas. Su configuración puede cambiarse desde el navegador de su dispositivo.

Para ciertos fines, los intereses legítimos pueden ser considerados por encima del consentimiento. Puede leer más sobre ello en nuestra Política de Privacidad y Cookies.